| time (UTC) | temp C | wind direction | speed KPH | gust KPH | rain 1hr cm | rain 24hr cm | rain mn cm | humidity % | barometer mb |
| 20260510231424 | 21 | 315 | 0.0 | 4.8 | 0.00 | 0.00 | 0.00 | 59 | 1014.8 |
| 20260510230919 | 21 | 283 | 1.6 | 4.8 | 0.00 | 0.00 | 0.00 | 57 | 1014.6 |
| 20260510230414 | 21 | 261 | 0.0 | 4.8 | 0.00 | 0.00 | 0.00 | 61 | 1014.5 |
| 20260510225907 | 21 | 320 | 0.0 | 4.8 | 0.00 | 0.00 | 0.00 | 57 | 1014.8 |
| 20260510225403 | 22 | 10 | 3.2 | 6.4 | 0.00 | 0.00 | 0.00 | 59 | 1015.0 |
| 20260510224858 | 22 | 8 | 0.0 | 4.8 | 0.00 | 0.00 | 0.00 | 61 | 1014.8 |
| 20260510224355 | 22 | 290 | 0.0 | 4.8 | 0.00 | 0.00 | 0.00 | 60 | 1014.9 |
| 20260510223852 | 21 | 267 | 6.4 | 8.0 | 0.00 | 0.00 | 0.00 | 58 | 1014.5 |
| 20260510223349 | 21 | 281 | 4.8 | 8.0 | 0.00 | 0.00 | 0.00 | 57 | 1014.8 |
| 20260510222847 | 22 | 342 | 0.0 | 3.2 | 0.00 | 0.00 | 0.00 | 60 | 1014.9 |
| 20260510222344 | 22 | 354 | 1.6 | 4.8 | 0.00 | 0.00 | 0.00 | 59 | 1014.9 |
| 20260510221838 | 22 | 346 | 4.8 | 4.8 | 0.00 | 0.00 | 0.00 | 60 | 1014.7 |
| 20260510221336 | 22 | 71 | 1.6 | 4.8 | 0.00 | 0.00 | 0.00 | 63 | 1015.0 |
| 20260510220832 | 22 | 4 | 0.0 | 4.8 | 0.00 | 0.00 | 0.00 | 65 | 1014.7 |
| 20260510220328 | 22 | 26 | 3.2 | 4.8 | 0.00 | 0.00 | 0.00 | 63 | 1014.9 |
| 20260510215825 | 21 | 4 | 3.2 | 6.4 | 0.00 | 0.00 | 0.00 | 63 | 1015.1 |
| 20260510215322 | 21 | 12 | 1.6 | 4.8 | 0.00 | 0.00 | 0.00 | 63 | 1015.1 |
| 20260510214820 | 22 | 35 | 0.0 | 3.2 | 0.00 | 0.00 | 0.00 | 62 | 1014.8 |
| 20260510214316 | 22 | 0 | 1.6 | 6.4 | 0.00 | 0.00 | 0.00 | 61 | 1014.5 |
| 20260510213814 | 22 | 328 | 3.2 | 6.4 | 0.00 | 0.00 | 0.00 | 60 | 1014.7 |
| 20260510213310 | 23 | 256 | 6.4 | 6.4 | 0.00 | 0.00 | 0.00 | 60 | 1014.9 |
| 20260510212806 | 22 | 352 | 0.0 | 4.8 | 0.00 | 0.00 | 0.00 | 62 | 1014.6 |
| 20260510212306 | 22 | 282 | 4.8 | 12.9 | 0.00 | 0.00 | 0.00 | 61 | 1014.8 |
| 20260510211800 | 22 | 345 | 0.0 | 8.0 | 0.00 | 0.00 | 0.00 | 63 | 1014.6 |
| 20260510211256 | 23 | 328 | 3.2 | 6.4 | 0.00 | 0.00 | 0.00 | 61 | 1014.6 |
| 20260510210752 | 22 | 345 | 4.8 | 8.0 | 0.00 | 0.00 | 0.00 | 64 | 1014.4 |
| 20260510210246 | 22 | 0 | 3.2 | 6.4 | 0.00 | 0.00 | 0.00 | 62 | 1014.5 |
| 20260510205740 | 22 | 90 | 1.6 | 6.4 | 0.00 | 0.00 | 0.00 | 63 | 1014.3 |
| 20260510205235 | 23 | 49 | 0.0 | 4.8 | 0.00 | 0.00 | 0.00 | 64 | 1014.5 |
| 20260510204732 | 23 | 333 | 4.8 | 9.7 | 0.00 | 0.00 | 0.00 | 64 | 1014.4 |
| 20260510204229 | 23 | 341 | 3.2 | 9.7 | 0.00 | 0.00 | 0.00 | 65 | 1014.5 |
| 20260510203726 | 22 | 41 | 0.0 | 6.4 | 0.00 | 0.00 | 0.00 | 66 | 1014.4 |
| 20260510203223 | 23 | 292 | 4.8 | 6.4 | 0.00 | 0.00 | 0.00 | 64 | 1014.6 |
| 20260510202718 | 22 | 291 | 1.6 | 8.0 | 0.00 | 0.00 | 0.00 | 64 | 1014.4 |
| 20260510202213 | 23 | 300 | 3.2 | 4.8 | 0.00 | 0.00 | 0.00 | 66 | 1014.4 |
| 20260510201711 | 22 | 70 | 0.0 | 4.8 | 0.00 | 0.00 | 0.00 | 72 | 1014.5 |
| 20260510201207 | 21 | 273 | 6.4 | 8.0 | 0.00 | 0.00 | 0.00 | 65 | 1014.5 |
| 20260510200704 | 21 | 342 | 1.6 | 4.8 | 0.00 | 0.00 | 0.00 | 73 | 1014.7 |
| 20260510200202 | 20 | 10 | 3.2 | 8.0 | 0.00 | 0.00 | 0.00 | 72 | 1014.7 |
| 20260510195659 | 20 | 351 | 6.4 | 9.7 | 0.00 | 0.00 | 0.00 | 71 | 1014.7 |
| 20260510195155 | 22 | 84 | 6.4 | 8.0 | 0.00 | 0.00 | 0.00 | 71 | 1014.7 |
| 20260510194654 | 21 | 337 | 0.0 | 4.8 | 0.00 | 0.00 | 0.00 | 72 | 1014.8 |
| 20260510194151 | 21 | 5 | 0.0 | 8.0 | 0.00 | 0.00 | 0.00 | 72 | 1014.7 |
| 20260510193646 | 20 | 33 | 6.4 | 16.1 | 0.00 | 0.00 | 0.00 | 74 | 1014.6 |
| 20260510193142 | 21 | 21 | 8.0 | 9.7 | 0.00 | 0.00 | 0.00 | 72 | 1014.8 |
| 20260510192637 | 23 | 119 | 3.2 | 8.0 | 0.00 | 0.00 | 0.00 | 71 | 1014.7 |
| 20260510192133 | 21 | 53 | 11.3 | 12.9 | 0.00 | 0.00 | 0.00 | 72 | 1014.7 |
| 20260510191630 | 22 | 49 | 4.8 | 9.7 | 0.00 | 0.00 | 0.00 | 74 | 1014.8 |
| 20260510191126 | 22 | 73 | 0.0 | 4.8 | 0.00 | 0.00 | 0.00 | 70 | 1014.8 |
| 20260510190623 | 22 | 318 | 4.8 | 6.4 | 0.00 | 0.00 | 0.00 | 70 | 1014.4 |
| 20260510190121 | 22 | 345 | 4.8 | 4.8 | 0.00 | 0.00 | 0.00 | 73 | 1014.7 |
| 20260510185617 | 22 | 322 | 4.8 | 8.0 | 0.00 | 0.00 | 0.00 | 70 | 1014.8 |
| 20260510185115 | 22 | 5 | 3.2 | 8.0 | 0.00 | 0.00 | 0.00 | 71 | 1014.7 |
| 20260510184612 | 22 | 312 | 0.0 | 4.8 | 0.00 | 0.00 | 0.00 | 72 | 1014.6 |
| 20260510184108 | 22 | 352 | 0.0 | 4.8 | 0.00 | 0.00 | 0.00 | 72 | 1014.7 |
| 20260510183603 | 23 | 0 | 0.0 | 6.4 | 0.00 | 0.00 | 0.00 | 74 | 1014.8 |
| 20260510183058 | 22 | 0 | 0.0 | 4.8 | 0.00 | 0.00 | 0.00 | 76 | 1014.9 |
| 20260510182555 | 21 | 319 | 3.2 | 8.0 | 0.00 | 0.00 | 0.00 | 74 | 1015.0 |
| 20260510182050 | 21 | 331 | 3.2 | 11.3 | 0.00 | 0.00 | 0.00 | 71 | 1014.8 |
| 20260510181548 | 22 | 14 | 0.0 | 11.3 | 0.00 | 0.00 | 0.00 | 75 | 1014.7 |
| 20260510181044 | 21 | 0 | 3.2 | 9.7 | 0.00 | 0.00 | 0.00 | 71 | 1014.7 |
| 20260510180541 | 21 | 280 | 3.2 | 4.8 | 0.00 | 0.00 | 0.00 | 73 | 1014.6 |
| 20260510180039 | 21 | 319 | 3.2 | 6.4 | 0.00 | 0.00 | 0.00 | 72 | 1014.4 |
| 20260510175533 | 21 | 333 | 4.8 | 4.8 | 0.00 | 0.00 | 0.00 | 72 | 1014.6 |
| 20260510175030 | 22 | 307 | 3.2 | 9.7 | 0.00 | 0.00 | 0.00 | 67 | 1014.8 |
| 20260510174528 | 22 | 315 | 0.0 | 8.0 | 0.00 | 0.00 | 0.00 | 70 | 1014.6 |
| 20260510174025 | 23 | 339 | 3.2 | 4.8 | 0.00 | 0.00 | 0.00 | 72 | 1014.5 |
| 20260510173520 | 21 | 294 | 8.0 | 8.0 | 0.00 | 0.00 | 0.00 | 69 | 1014.3 |
| 20260510173017 | 22 | 294 | 8.0 | 9.7 | 0.00 | 0.00 | 0.00 | 69 | 1014.5 |
| 20260510172513 | 22 | 301 | 4.8 | 4.8 | 0.00 | 0.00 | 0.00 | 69 | 1014.3 |
| 20260510172009 | 22 | 312 | 4.8 | 6.4 | 0.00 | 0.00 | 0.00 | 71 | 1014.4 |
| 20260510171506 | 21 | 266 | 4.8 | 11.3 | 0.00 | 0.00 | 0.00 | 70 | 1014.4 |
| 20260510171003 | 21 | 287 | 4.8 | 6.4 | 0.00 | 0.00 | 0.00 | 69 | 1014.5 |
| 20260510170459 | 21 | 334 | 3.2 | 6.4 | 0.00 | 0.00 | 0.00 | 72 | 1014.4 |
| 20260510165955 | 21 | 275 | 3.2 | 8.0 | 0.00 | 0.00 | 0.00 | 69 | 1014.3 |
| 20260510165452 | 21 | 308 | 6.4 | 6.4 | 0.00 | 0.00 | 0.00 | 72 | 1014.4 |
| 20260510164948 | 20 | 254 | 4.8 | 6.4 | 0.00 | 0.00 | 0.00 | 74 | 1014.5 |
| 20260510164445 | 20 | 282 | 0.0 | 6.4 | 0.00 | 0.00 | 0.00 | 76 | 1014.4 |
| 20260510163941 | 19 | 270 | 0.0 | 4.8 | 0.00 | 0.00 | 0.00 | 76 | 1014.5 |
| 20260510163437 | 19 | 7 | 1.6 | 8.0 | 0.00 | 0.00 | 0.00 | 75 | 1014.5 |
| 20260510162937 | 20 | 0 | 1.6 | 4.8 | 0.00 | 0.00 | 0.00 | 76 | 1014.5 |
| 20260510162429 | 19 | 308 | 0.0 | 4.8 | 0.00 | 0.00 | 0.00 | 74 | 1014.6 |
| 20260510161925 | 19 | 325 | 0.0 | 4.8 | 0.00 | 0.00 | 0.00 | 75 | 1014.4 |
| 20260510161420 | 20 | 294 | 3.2 | 4.8 | 0.00 | 0.00 | 0.00 | 75 | 1014.3 |
| 20260510160918 | 20 | 32 | 0.0 | 4.8 | 0.00 | 0.00 | 0.00 | 76 | 1014.3 |
| 20260510160414 | 21 | 339 | 0.0 | 6.4 | 0.00 | 0.00 | 0.00 | 72 | 1014.3 |
| 20260510155908 | 20 | 292 | 4.8 | 4.8 | 0.00 | 0.00 | 0.00 | 75 | 1014.3 |
| 20260510155405 | 20 | 295 | 4.8 | 4.8 | 0.00 | 0.00 | 0.00 | 75 | 1014.2 |
| 20260510154901 | 20 | 0 | 0.0 | 9.7 | 0.00 | 0.00 | 0.00 | 75 | 1014.2 |
| 20260510154357 | 20 | 270 | 3.2 | 3.2 | 0.00 | 0.00 | 0.00 | 75 | 1014.1 |
| 20260510153851 | 20 | 285 | 1.6 | 6.4 | 0.00 | 0.00 | 0.00 | 76 | 1014.2 |
| 20260510153347 | 20 | 319 | 3.2 | 4.8 | 0.00 | 0.00 | 0.00 | 79 | 1013.9 |
| 20260510152844 | 19 | 243 | 0.0 | 3.2 | 0.00 | 0.00 | 0.00 | 77 | 1014.1 |
| 20260510152342 | 18 | 322 | 3.2 | 4.8 | 0.00 | 0.00 | 0.00 | 78 | 1014.3 |
| 20260510151838 | 18 | 286 | 0.0 | 4.8 | 0.00 | 0.00 | 0.00 | 79 | 1014.3 |
| 20260510151336 | 18 | 270 | 1.6 | 3.2 | 0.00 | 0.00 | 0.00 | 79 | 1014.2 |
| 20260510150831 | 18 | 331 | 1.6 | 4.8 | 0.00 | 0.00 | 0.00 | 78 | 1013.9 |
| 20260510150327 | 19 | 345 | 1.6 | 6.4 | 0.00 | 0.00 | 0.00 | 73 | 1014.0 |
| 20260510145824 | 19 | 292 | 3.2 | 4.8 | 0.00 | 0.00 | 0.00 | 73 | 1013.5 |
| 20260510145320 | 20 | 338 | 0.0 | 4.8 | 0.00 | 0.00 | 0.00 | 72 | 1013.6 |
| 20260510144817 | 20 | 320 | 0.0 | 3.2 | 0.00 | 0.00 | 0.00 | 71 | 1013.1 |
| 20260510144314 | 20 | 309 | 0.0 | 4.8 | 0.00 | 0.00 | 0.00 | 71 | 1013.2 |
| 20260510143813 | 20 | 345 | 1.6 | 6.4 | 0.00 | 0.00 | 0.00 | 71 | 1013.6 |
| 20260510143310 | 21 | 232 | 6.4 | 11.3 | 0.00 | 0.00 | 0.00 | 68 | 1013.5 |
| 20260510142806 | 20 | 236 | 4.8 | 14.5 | 0.00 | 0.00 | 0.00 | 75 | 1013.9 |
| 20260510142306 | 20 | 216 | 4.8 | 4.8 | 0.00 | 0.00 | 0.00 | 72 | 1013.9 |
| 20260510141800 | 20 | 286 | 1.6 | 3.2 | 0.00 | 0.00 | 0.00 | 71 | 1013.7 |
| 20260510141257 | 19 | 270 | 4.8 | 4.8 | 0.00 | 0.00 | 0.00 | 73 | 1013.8 |
| 20260510140754 | 19 | 251 | 6.4 | 6.4 | 0.00 | 0.00 | 0.00 | 74 | 1013.4 |
| 20260510140250 | 19 | 270 | 0.0 | 6.4 | 0.00 | 0.00 | 0.00 | 73 | 1013.7 |
| 20260510135744 | 18 | 245 | 12.9 | 22.5 | 0.00 | 0.00 | 0.00 | 72 | 1013.5 |
| 20260510135240 | 20 | 262 | 4.8 | 9.7 | 0.00 | 0.00 | 0.00 | 74 | 1013.6 |
| 20260510134738 | 19 | 222 | 4.8 | 11.3 | 0.00 | 0.00 | 0.00 | 72 | 1013.5 |
| 20260510134235 | 18 | 259 | 6.4 | 17.7 | 0.00 | 0.00 | 0.00 | 74 | 1013.6 |
| 20260510133730 | 18 | 240 | 4.8 | 11.3 | 0.00 | 0.00 | 0.00 | 75 | 1013.6 |
| 20260510133226 | 18 | 274 | 4.8 | 12.9 | 0.00 | 0.00 | 0.00 | 76 | 1013.9 |
| 20260510132722 | 17 | 285 | 4.8 | 11.3 | 0.00 | 0.00 | 0.00 | 76 | 1013.8 |
| 20260510132220 | 17 | 239 | 6.4 | 11.3 | 0.00 | 0.00 | 0.00 | 78 | 1013.6 |
| 20260510131717 | 17 | 241 | 8.0 | 11.3 | 0.00 | 0.00 | 0.00 | 77 | 1013.6 |
| 20260510131215 | 17 | 114 | 0.0 | 4.8 | 0.00 | 0.00 | 0.00 | 79 | 1013.5 |
| 20260510130711 | 17 | 230 | 4.8 | 9.7 | 0.00 | 0.00 | 0.00 | 78 | 1013.5 |
| 20260510130209 | 17 | 204 | 3.2 | 11.3 | 0.00 | 0.00 | 0.00 | 77 | 1013.2 |
| 20260510125704 | 17 | 300 | 0.0 | 11.3 | 0.00 | 0.00 | 0.00 | 77 | 1013.2 |
| 20260510125200 | 17 | 175 | 3.2 | 3.2 | 0.00 | 0.00 | 0.00 | 80 | 1013.4 |
| 20260510124652 | 16 | 275 | 3.2 | 8.0 | 0.00 | 0.00 | 0.00 | 78 | 1013.1 |
| 20260510124149 | 16 | 203 | 1.6 | 12.9 | 0.00 | 0.00 | 0.00 | 79 | 1013.1 |
| 20260510123644 | 16 | 259 | 4.8 | 12.9 | 0.00 | 0.00 | 0.00 | 79 | 1013.0 |
| 20260510123141 | 16 | 209 | 3.2 | 12.9 | 0.00 | 0.00 | 0.00 | 78 | 1013.0 |
| 20260510122637 | 16 | 229 | 0.0 | 8.0 | 0.00 | 0.00 | 0.00 | 79 | 1012.9 |
| 20260510122133 | 16 | 111 | 0.0 | 3.2 | 0.00 | 0.00 | 0.00 | 82 | 1013.1 |
| 20260510121630 | 16 | 232 | 3.2 | 6.4 | 0.00 | 0.00 | 0.00 | 81 | 1012.9 |
| 20260510121127 | 16 | 180 | 0.0 | 3.2 | 0.00 | 0.00 | 0.00 | 82 | 1012.9 |
| 20260510120625 | 16 | 277 | 4.8 | 6.4 | 0.00 | 0.00 | 0.00 | 81 | 1012.9 |
| 20260510120120 | 16 | 241 | 6.4 | 12.9 | 0.00 | 0.00 | 0.00 | 83 | 1013.0 |
| 20260510115617 | 15 | 180 | 0.0 | 3.2 | 0.00 | 0.00 | 0.00 | 89 | 1012.8 |
| 20260510115115 | 13 | 195 | 0.0 | 3.2 | 0.00 | 0.00 | 0.00 | 94 | 1012.9 |
| 20260510114610 | 13 | 132 | 0.0 | 3.2 | 0.00 | 0.00 | 0.00 | 95 | 1012.9 |
| 20260510114106 | 12 | 78 | 1.6 | 4.8 | 0.00 | 0.00 | 0.00 | 96 | 1012.8 |
| 20260510113602 | 12 | 23 | 0.0 | 4.8 | 0.00 | 0.00 | 0.00 | 96 | 1012.6 |
| 20260510113059 | 12 | 348 | 1.6 | 3.2 | 0.00 | 0.00 | 0.00 | 97 | 1012.6 |
| 20260510112556 | 11 | 112 | 3.2 | 4.8 | 0.00 | 0.00 | 0.00 | 97 | 1012.7 |
| 20260510112052 | 11 | 72 | 3.2 | 4.8 | 0.00 | 0.00 | 0.00 | 98 | 1012.2 |
| 20260510111549 | 11 | 126 | 0.0 | 4.8 | 0.00 | 0.00 | 0.00 | 98 | 1012.4 |
| 20260510111045 | 11 | 297 | 0.0 | 3.2 | 0.00 | 0.00 | 0.00 | 98 | 1012.1 |
| 20260510110541 | 11 | 251 | 0.0 | 3.2 | 0.00 | 0.00 | 0.00 | 98 | 1012.1 |
| 20260510110037 | 11 | 66 | 3.2 | 4.8 | 0.00 | 0.00 | 0.00 | 98 | 1011.9 |
| 20260510105533 | 10 | 53 | 0.0 | 3.2 | 0.00 | 0.00 | 0.00 | 98 | 1012.2 |
| 20260510105028 | 11 | 74 | 3.2 | 4.8 | 0.00 | 0.00 | 0.00 | 98 | 1011.7 |
| 20260510104525 | 11 | 340 | 1.6 | 3.2 | 0.00 | 0.00 | 0.00 | 98 | 1011.7 |
| 20260510104021 | 10 | 217 | 3.2 | 3.2 | 0.00 | 0.00 | 0.00 | 97 | 1011.9 |
| 20260510103518 | 11 | 160 | 1.6 | 3.2 | 0.00 | 0.00 | 0.00 | 97 | 1011.6 |
| 20260510103014 | 11 | 63 | 0.0 | 3.2 | 0.00 | 0.00 | 0.00 | 97 | 1011.6 |
| 20260510102510 | 11 | 97 | 0.0 | 3.2 | 0.00 | 0.00 | 0.00 | 97 | 1011.6 |
| 20260510102007 | 11 | 188 | 0.0 | 4.8 | 0.00 | 0.00 | 0.00 | 97 | 1011.5 |
| 20260510101504 | 11 | 77 | 1.6 | 3.2 | 0.00 | 0.00 | 0.00 | 96 | 1011.4 |
| 20260510101003 | 11 | 277 | 0.0 | 1.6 | 0.00 | 0.00 | 0.00 | 96 | 1011.4 |
| 20260510100458 | 11 | 336 | 0.0 | 4.8 | 0.00 | 0.00 | 0.00 | 95 | 1011.3 |
| 20260510095955 | 11 | 166 | 3.2 | 4.8 | 0.00 | 0.00 | 0.00 | 95 | 1011.3 |
| 20260510095451 | 11 | 81 | 3.2 | 6.4 | 0.00 | 0.00 | 0.00 | 94 | 1011.4 |
| 20260510094950 | 12 | 94 | 3.2 | 6.4 | 0.00 | 0.00 | 0.00 | 92 | 1011.3 |
| 20260510094445 | 12 | 234 | 0.0 | 4.8 | 0.00 | 0.00 | 0.00 | 92 | 1011.0 |
| 20260510093941 | 12 | 212 | 1.6 | 4.8 | 0.00 | 0.00 | 0.00 | 90 | 1010.9 |
| 20260510093437 | 13 | 83 | 0.0 | 3.2 | 0.00 | 0.00 | 0.00 | 90 | 1010.9 |
| 20260510092933 | 12 | 188 | 0.0 | 4.8 | 0.00 | 0.00 | 0.00 | 91 | 1010.7 |
| 20260510092431 | 12 | 60 | 0.0 | 4.8 | 0.00 | 0.00 | 0.00 | 91 | 1010.6 |
| 20260510091929 | 13 | 192 | 1.6 | 3.2 | 0.00 | 0.00 | 0.00 | 89 | 1010.9 |
| 20260510091428 | 13 | 186 | 0.0 | 3.2 | 0.00 | 0.00 | 0.00 | 89 | 1010.6 |
| 20260510090924 | 13 | 98 | 0.0 | 3.2 | 0.00 | 0.00 | 0.00 | 88 | 1010.7 |
| 20260510090421 | 13 | 135 | 0.0 | 4.8 | 0.00 | 0.00 | 0.00 | 88 | 1010.5 |
| 20260510085917 | 14 | 225 | 3.2 | 8.0 | 0.00 | 0.00 | 0.00 | 87 | 1010.7 |
| 20260510085412 | 14 | 197 | 3.2 | 4.8 | 0.00 | 0.00 | 0.00 | 87 | 1010.6 |
| 20260510084907 | 13 | 188 | 0.0 | 4.8 | 0.00 | 0.00 | 0.00 | 87 | 1010.3 |
| 20260510084405 | 13 | 258 | 1.6 | 3.2 | 0.00 | 0.00 | 0.00 | 87 | 1010.6 |
| 20260510083901 | 13 | 221 | 3.2 | 4.8 | 0.00 | 0.00 | 0.00 | 87 | 1010.4 |
| 20260510083358 | 14 | 228 | 4.8 | 6.4 | 0.00 | 0.00 | 0.00 | 87 | 1010.4 |
| 20260510082853 | 13 | 229 | 0.0 | 3.2 | 0.00 | 0.00 | 0.00 | 89 | 1010.6 |
| 20260510082351 | 13 | 180 | 0.0 | 3.2 | 0.00 | 0.00 | 0.00 | 89 | 1010.6 |
| 20260510081849 | 13 | 195 | 1.6 | 3.2 | 0.00 | 0.00 | 0.00 | 88 | 1010.4 |
| 20260510081346 | 13 | 192 | 0.0 | 3.2 | 0.00 | 0.00 | 0.00 | 89 | 1010.5 |
| 20260510080842 | 13 | 188 | 0.0 | 4.8 | 0.00 | 0.00 | 0.00 | 89 | 1010.4 |
| 20260510080331 | 13 | 279 | 0.0 | 4.8 | 0.00 | 0.00 | 0.00 | 87 | 1010.4 |
| 20260510075828 | 13 | 270 | 0.0 | 4.8 | 0.00 | 0.00 | 0.00 | 86 | 1010.4 |
| 20260510075325 | 14 | 159 | 0.0 | 3.2 | 0.00 | 0.00 | 0.00 | 87 | 1010.3 |
| 20260510074822 | 14 | 188 | 0.0 | 4.8 | 0.00 | 0.00 | 0.00 | 87 | 1010.3 |
| 20260510074314 | 14 | 201 | 0.0 | 3.2 | 0.00 | 0.00 | 0.00 | 86 | 1010.1 |
| 20260510073809 | 14 | 185 | 0.0 | 4.8 | 0.00 | 0.00 | 0.00 | 86 | 1010.1 |
| 20260510073305 | 14 | 159 | 0.0 | 3.2 | 0.00 | 0.00 | 0.00 | 86 | 1010.0 |
| 20260510072801 | 14 | 166 | 0.0 | 3.2 | 0.00 | 0.00 | 0.00 | 85 | 1010.1 |
| 20260510072258 | 15 | 157 | 0.0 | 4.8 | 0.00 | 0.00 | 0.00 | 84 | 1010.1 |
| 20260510071754 | 15 | 270 | 0.0 | 8.0 | 0.00 | 0.00 | 0.00 | 84 | 1010.1 |
| 20260510071251 | 15 | 7 | 0.0 | 6.4 | 0.00 | 0.00 | 0.00 | 84 | 1010.2 |
| 20260510070751 | 15 | 270 | 0.0 | 3.2 | 0.00 | 0.00 | 0.00 | 85 | 1010.1 |
| 20260510070247 | 15 | 145 | 6.4 | 6.4 | 0.00 | 0.00 | 0.00 | 85 | 1010.1 |
| 20260510065747 | 15 | 90 | 0.0 | 6.4 | 0.00 | 0.00 | 0.00 | 85 | 1010.1 |
| 20260510065244 | 15 | 166 | 1.6 | 8.0 | 0.00 | 0.00 | 0.00 | 84 | 1010.1 |
| 20260510064740 | 15 | 278 | 0.0 | 4.8 | 0.00 | 0.00 | 0.00 | 84 | 1009.9 |
| 20260510064238 | 15 | 180 | 0.0 | 3.2 | 0.00 | 0.00 | 0.00 | 85 | 1010.1 |
| 20260510063734 | 14 | 348 | 0.0 | 3.2 | 0.00 | 0.00 | 0.00 | 85 | 1010.1 |
| 20260510063231 | 15 | 259 | 0.0 | 6.4 | 0.00 | 0.00 | 0.00 | 85 | 1010.1 |
| 20260510062727 | 15 | 233 | 3.2 | 6.4 | 0.00 | 0.00 | 0.00 | 85 | 1010.1 |
| 20260510062223 | 15 | 165 | 0.0 | 4.8 | 0.00 | 0.00 | 0.00 | 85 | 1010.2 |
| 20260510061719 | 15 | 180 | 0.0 | 4.8 | 0.00 | 0.00 | 0.00 | 84 | 1010.2 |
| 20260510061216 | 15 | 187 | 0.0 | 4.8 | 0.00 | 0.00 | 0.00 | 83 | 1010.0 |
| 20260510060712 | 15 | 160 | 0.0 | 4.8 | 0.00 | 0.00 | 0.00 | 83 | 1010.2 |
| 20260510060209 | 15 | 229 | 3.2 | 6.4 | 0.00 | 0.00 | 0.00 | 82 | 1010.1 |
| 20260510055706 | 15 | 166 | 4.8 | 4.8 | 0.00 | 0.00 | 0.00 | 82 | 1010.1 |
| 20260510055204 | 15 | 90 | 0.0 | 8.0 | 0.00 | 0.00 | 0.00 | 83 | 1010.3 |
| 20260510054659 | 15 | 180 | 0.0 | 3.2 | 0.00 | 0.00 | 0.00 | 84 | 1010.3 |
| 20260510054155 | 15 | 257 | 0.0 | 4.8 | 0.00 | 0.00 | 0.00 | 84 | 1010.1 |
| 20260510053654 | 15 | 286 | 0.0 | 6.4 | 0.00 | 0.00 | 0.00 | 83 | 1010.2 |
| 20260510053151 | 15 | 238 | 4.8 | 4.8 | 0.00 | 0.00 | 0.00 | 84 | 1010.2 |
| 20260510052647 | 15 | 283 | 3.2 | 4.8 | 0.00 | 0.00 | 0.00 | 84 | 1010.2 |
| 20260510052143 | 15 | 187 | 0.0 | 3.2 | 0.00 | 0.00 | 0.00 | 83 | 1010.3 |
| 20260510051639 | 15 | 175 | 0.0 | 8.0 | 0.00 | 0.00 | 0.00 | 83 | 1010.4 |
| 20260510051135 | 15 | 267 | 6.4 | 6.4 | 0.00 | 0.00 | 0.00 | 83 | 1010.4 |
| 20260510050633 | 15 | 308 | 3.2 | 6.4 | 0.00 | 0.00 | 0.00 | 83 | 1010.3 |
| 20260510050130 | 15 | 68 | 4.8 | 4.8 | 0.00 | 0.00 | 0.00 | 84 | 1010.4 |
| 20260510045626 | 15 | 264 | 0.0 | 4.8 | 0.00 | 0.00 | 0.00 | 83 | 1010.4 |
| 20260510045123 | 15 | 221 | 3.2 | 4.8 | 0.00 | 0.00 | 0.00 | 84 | 1010.2 |
| 20260510044619 | 15 | 147 | 0.0 | 11.3 | 0.00 | 0.00 | 0.00 | 82 | 1010.6 |
| 20260510044117 | 15 | 266 | 4.8 | 4.8 | 0.00 | 0.00 | 0.00 | 83 | 1010.4 |
| 20260510043613 | 15 | 255 | 0.0 | 6.4 | 0.00 | 0.00 | 0.00 | 82 | 1010.5 |
| 20260510043109 | 16 | 270 | 0.0 | 4.8 | 0.00 | 0.00 | 0.00 | 81 | 1010.4 |
| 20260510042607 | 16 | 263 | 11.3 | 12.9 | 0.00 | 0.00 | 0.00 | 82 | 1010.6 |
| 20260510042102 | 16 | 260 | 3.2 | 4.8 | 0.00 | 0.00 | 0.00 | 82 | 1010.8 |
| 20260510041600 | 16 | 221 | 3.2 | 4.8 | 0.00 | 0.00 | 0.00 | 82 | 1010.5 |
| 20260510041057 | 15 | 185 | 1.6 | 4.8 | 0.00 | 0.00 | 0.00 | 83 | 1010.5 |
| 20260510040554 | 15 | 254 | 0.0 | 9.7 | 0.00 | 0.00 | 0.00 | 82 | 1010.5 |
| 20260510040050 | 15 | 180 | 1.6 | 4.8 | 0.00 | 0.00 | 0.00 | 82 | 1010.5 |
| 20260510035547 | 15 | 212 | 3.2 | 4.8 | 0.00 | 0.00 | 0.00 | 83 | 1010.4 |
| 20260510035046 | 15 | 71 | 0.0 | 4.8 | 0.00 | 0.00 | 0.00 | 83 | 1010.7 |
| 20260510034544 | 15 | 285 | 0.0 | 4.8 | 0.00 | 0.00 | 0.00 | 82 | 1010.4 |
| 20260510034041 | 15 | 270 | 4.8 | 4.8 | 0.00 | 0.00 | 0.00 | 82 | 1010.6 |
| 20260510033537 | 16 | 190 | 3.2 | 4.8 | 0.00 | 0.00 | 0.00 | 82 | 1010.6 |
| 20260510033035 | 16 | 270 | 0.0 | 3.2 | 0.00 | 0.00 | 0.00 | 81 | 1010.5 |
| 20260510032531 | 16 | 254 | 1.6 | 4.8 | 0.00 | 0.00 | 0.00 | 80 | 1010.6 |
| 20260510032026 | 16 | 213 | 4.8 | 9.7 | 0.00 | 0.00 | 0.00 | 79 | 1010.5 |
| 20260510031521 | 16 | 290 | 4.8 | 9.7 | 0.00 | 0.00 | 0.00 | 78 | 1010.4 |
| 20260510031017 | 16 | 215 | 1.6 | 4.8 | 0.00 | 0.00 | 0.00 | 79 | 1010.2 |
| 20260510030508 | 16 | 229 | 3.2 | 6.4 | 0.00 | 0.00 | 0.00 | 79 | 1010.3 |
| 20260510030005 | 16 | 259 | 6.4 | 11.3 | 0.00 | 0.00 | 0.00 | 79 | 1010.2 |
| 20260510025502 | 16 | 212 | 3.2 | 4.8 | 0.00 | 0.00 | 0.00 | 80 | 1010.3 |
| 20260510025000 | 16 | 117 | 3.2 | 11.3 | 0.00 | 0.00 | 0.00 | 78 | 1010.1 |
| 20260510024456 | 16 | 250 | 0.0 | 4.8 | 0.00 | 0.00 | 0.00 | 80 | 1010.2 |
| 20260510023952 | 16 | 68 | 0.0 | 3.2 | 0.00 | 0.00 | 0.00 | 80 | 1009.9 |
| 20260510023448 | 16 | 75 | 4.8 | 4.8 | 0.00 | 0.00 | 0.00 | 80 | 1010.0 |
| 20260510022946 | 16 | 185 | 1.6 | 4.8 | 0.00 | 0.00 | 0.00 | 80 | 1009.6 |
| 20260510022445 | 16 | 166 | 1.6 | 4.8 | 0.00 | 0.00 | 0.00 | 82 | 1009.5 |
| 20260510021944 | 16 | 198 | 0.0 | 3.2 | 0.00 | 0.00 | 0.00 | 81 | 1009.5 |
| 20260510021442 | 16 | 243 | 0.0 | 3.2 | 0.00 | 0.00 | 0.00 | 80 | 1009.9 |
| 20260510020939 | 16 | 172 | 0.0 | 3.2 | 0.00 | 0.00 | 0.00 | 80 | 1009.8 |
| 20260510020439 | 16 | 15 | 0.0 | 3.2 | 0.00 | 0.00 | 0.00 | 79 | 1009.6 |
| 20260510015935 | 16 | 246 | 3.2 | 8.0 | 0.00 | 0.00 | 0.00 | 78 | 1009.7 |
| 20260510015431 | 16 | 159 | 0.0 | 4.8 | 0.00 | 0.00 | 0.00 | 79 | 1009.7 |
| 20260510014926 | 16 | 213 | 0.0 | 3.2 | 0.00 | 0.00 | 0.00 | 79 | 1009.5 |
| 20260510014424 | 16 | 311 | 3.2 | 4.8 | 0.00 | 0.00 | 0.00 | 79 | 1009.4 |
| 20260510013920 | 16 | 120 | 0.0 | 3.2 | 0.00 | 0.00 | 0.00 | 78 | 1009.3 |
| 20260510013415 | 16 | 162 | 1.6 | 4.8 | 0.00 | 0.00 | 0.00 | 77 | 1009.4 |
| 20260510012910 | 17 | 261 | 3.2 | 4.8 | 0.00 | 0.00 | 0.00 | 76 | 1009.4 |
| 20260510012406 | 17 | 233 | 0.0 | 4.8 | 0.00 | 0.00 | 0.00 | 76 | 1008.9 |
| 20260510011900 | 17 | 123 | 4.8 | 4.8 | 0.00 | 0.00 | 0.00 | 77 | 1009.0 |
| 20260510011356 | 17 | 270 | 1.6 | 4.8 | 0.00 | 0.00 | 0.00 | 76 | 1009.0 |
| 20260510010852 | 17 | 162 | 1.6 | 4.8 | 0.00 | 0.00 | 0.00 | 76 | 1008.9 |
| 20260510010350 | 17 | 154 | 0.0 | 4.8 | 0.00 | 0.00 | 0.00 | 75 | 1008.8 |
| 20260510005846 | 17 | 315 | 0.0 | 3.2 | 0.00 | 0.00 | 0.00 | 75 | 1008.5 |
| 20260510005343 | 17 | 119 | 4.8 | 4.8 | 0.00 | 0.00 | 0.00 | 74 | 1008.4 |
| 20260510004840 | 17 | 53 | 0.0 | 4.8 | 0.00 | 0.00 | 0.00 | 74 | 1008.4 |
| 20260510004338 | 17 | 194 | 0.0 | 4.8 | 0.00 | 0.00 | 0.00 | 74 | 1008.4 |
| 20260510003835 | 18 | 186 | 0.0 | 4.8 | 0.00 | 0.00 | 0.00 | 71 | 1008.5 |
| 20260510003332 | 18 | 248 | 8.0 | 9.7 | 0.00 | 0.00 | 0.00 | 71 | 1008.5 |
| 20260510002830 | 18 | 168 | 0.0 | 4.8 | 0.00 | 0.00 | 0.00 | 71 | 1008.6 |
| 20260510002328 | 18 | 175 | 3.2 | 6.4 | 0.00 | 0.00 | 0.00 | 70 | 1008.4 |
| 20260510001825 | 18 | 162 | 1.6 | 4.8 | 0.00 | 0.00 | 0.00 | 70 | 1008.4 |
| 20260510001323 | 19 | 292 | 0.0 | 9.7 | 0.00 | 0.00 | 0.00 | 69 | 1008.2 |
| 20260510000818 | 19 | 195 | 0.0 | 8.0 | 0.00 | 0.00 | 0.00 | 68 | 1008.0 |
| 20260510000318 | 19 | 297 | 3.2 | 4.8 | 0.00 | 0.00 | 0.00 | 67 | 1008.1 |
| 20260509235813 | 20 | 294 | 1.6 | 14.5 | 0.00 | 0.00 | 0.00 | 67 | 1007.8 |
| 20260509235310 | 20 | 144 | 3.2 | 4.8 | 0.00 | 0.00 | 0.00 | 65 | 1007.9 |
| 20260509234805 | 20 | 246 | 1.6 | 4.8 | 0.00 | 0.00 | 0.00 | 64 | 1007.7 |
| 20260509234302 | 20 | 165 | 0.0 | 11.3 | 0.00 | 0.00 | 0.00 | 64 | 1007.9 |
| 20260509233801 | 20 | 113 | 0.0 | 4.8 | 0.00 | 0.00 | 0.00 | 65 | 1007.8 |
| 20260509233258 | 21 | 297 | 6.4 | 6.4 | 0.00 | 0.00 | 0.00 | 64 | 1007.9 |
| 20260509232753 | 21 | 262 | 1.6 | 9.7 | 0.00 | 0.00 | 0.00 | 63 | 1007.7 |
| 20260509232251 | 21 | 253 | 9.7 | 14.5 | 0.00 | 0.00 | 0.00 | 62 | 1008.0 |
| 20260509231747 | 21 | 260 | 8.0 | 17.7 | 0.00 | 0.00 | 0.00 | 62 | 1007.9 |